Weather History for CYYG - January, 2013

Change the Weather History Date:

Tuesday, January 22, 2013

  Actual Average Record
Temperature  
Mean Temperature 7 °F -  
Max Temperature 9 °F 26 °F 41 °F (1997)
Min Temperature 3 °F 10 °F -4 °F (2003)
Degree Days  
Heating Degree Days 58    
Moisture  
Dew Point -3 °F    
Average Humidity 63    
Maximum Humidity 73    
Minimum Humidity 44    
Precipitation  
Precipitation 0.00 in 0.13 in - ()
Sea Level Pressure  
Sea Level Pressure 29.79 in    
Wind  
Wind Speed 7 mph ()    
Max Wind Speed 18 mph    
Max Gust Speed 23 mph    
Visibility 15.0 miles    
Events Snow    
Averages and records for this station are not official NWS values.
T = Trace of Precipitation, MM = Missing Value Source: Averaged Metar Reports

Daily Weather History Graph

Daily Weather History Graph

Search for Another Location

Airport or City:

Trip Planner

Search our weather history database for the weather conditions in past years. The results will help you decide how hot, cold, wet, or windy it might be!

Date:

Astronomy

Jan. 22, 2013 Rise Set
Actual Time 7:45 AM AST 5:02 PM AST
Civil Twilight 7:12 AM AST 5:35 PM AST
Nautical Twilight 6:36 AM AST 6:12 PM AST
Astronomical Twilight 6:00 AM AST 6:48 PM AST
Moon 1:19 PM AST (1/22) 4:05 AM AST (1/22)
Length of Visible Light 10h 22m
Length of Day
9h 16m
Waxing Gibbous, 82% of the Moon is Illuminated
Jan 22
Waxing Gibbous
Jan 27
Full
Feb 3
Last Quarter
Feb 10
New
Feb 17
First Quarter

Hourly Weather History & Observations

Time (AST) Temp. Windchill Dew Point Humidity Pressure Visibility Wind Dir Wind Speed Gust Speed Precip Events Conditions
12:00 AM 8.6 °F -1.3 °F -4.0 °F 57% 29.97 in 15.0 mi West 5.8 mph - N/A   Mostly Cloudy
1:00 AM 8.6 °F -3.7 °F -4.0 °F 57% 29.96 in 15.0 mi West 8.1 mph - N/A   Mostly Cloudy
2:00 AM 8 °F - -3 °F 46% 29.98 in 15 mi West 6.9 mph - -   Overcast
2:00 AM 6.8 °F -4.8 °F -4.0 °F 61% 29.97 in 15.0 mi West 6.9 mph - N/A   Overcast
3:00 AM 6.8 °F -0.1 °F -4.0 °F 61% 29.95 in 15.0 mi WSW 3.5 mph - N/A   Mostly Cloudy
4:00 AM 5.0 °F -2.1 °F -4.0 °F 66% 29.87 in 15.0 mi NNW 3.5 mph - N/A   Mostly Cloudy
5:00 AM 6.8 °F - -4.0 °F 61% 29.85 in 15.0 mi Calm Calm - N/A   Mostly Cloudy
6:00 AM 6.8 °F - -5.8 °F 56% 29.83 in 15.0 mi Calm Calm - N/A   Overcast
7:00 AM 6.8 °F -0.1 °F -4.0 °F 61% 29.84 in 15.0 mi SW 3.5 mph - N/A   Overcast
8:00 AM 7 °F - -3 °F 48% 29.85 in 15 mi West 4.6 mph - -   Overcast
8:00 AM 6.8 °F -2.0 °F -4.0 °F 61% 29.84 in 15.0 mi West 4.6 mph - N/A   Overcast
9:00 AM 6.8 °F -4.8 °F -4.0 °F 61% 29.83 in 15.0 mi NW 6.9 mph - N/A   Overcast
10:00 AM 6.8 °F -5.9 °F -0.4 °F 72% 29.82 in 15.0 mi WNW 8.1 mph - N/A   Overcast
11:00 AM 8.6 °F -6.3 °F -0.4 °F 67% 29.78 in 15.0 mi NW 11.5 mph - N/A   Overcast
12:00 PM 8.6 °F -7.0 °F -0.4 °F 67% 29.75 in 15.0 mi NW 12.7 mph 19.6 mph N/A   Mostly Cloudy
1:00 PM 8.6 °F -10.0 °F 1.4 °F 73% 29.71 in 15.0 mi NW 18.4 mph - N/A   Mostly Cloudy
1:29 PM 8.6 °F -7.7 °F 1.4 °F 73% 29.69 in 15.0 mi NNW 13.8 mph 20.7 mph N/A Snow Light Snow Showers
2:00 PM 9 °F - 2 °F 61% 29.69 in 15 mi NW 12.7 mph - - Snow Light Snow Showers
2:00 PM 8.6 °F -7.0 °F 1.4 °F 73% 29.69 in 15.0 mi NNW 12.7 mph 19.6 mph N/A   Mostly Cloudy
3:00 PM 8.6 °F -7.7 °F -0.4 °F 67% 29.70 in 15.0 mi NNW 13.8 mph 23.0 mph N/A   Mostly Cloudy
3:23 PM 8.6 °F -7.0 °F -0.4 °F 67% 29.69 in 15.0 mi NNW 12.7 mph 23.0 mph N/A Snow Light Snow Showers
4:00 PM 6.8 °F -9.3 °F -0.4 °F 72% 29.69 in 15.0 mi NW 12.7 mph 18.4 mph N/A   Mostly Cloudy
4:33 PM 8.6 °F -5.5 °F 1.4 °F 73% 29.69 in 15.0 mi NW 10.4 mph - N/A Snow Light Snow Showers
5:00 PM 6.8 °F -7.8 °F -0.4 °F 72% 29.70 in 15.0 mi WNW 10.4 mph - N/A   Mostly Cloudy
6:00 PM 5.0 °F -5.6 °F -2.2 °F 72% 29.71 in 15.0 mi West 5.8 mph - N/A   Scattered Clouds
7:00 PM 5.0 °F -9.1 °F -4.0 °F 66% 29.72 in 15.0 mi WNW 9.2 mph - N/A   Mostly Cloudy
8:00 PM 5 °F - -7 °F 44% 29.75 in 15 mi WNW 12.7 mph - -   Partly Cloudy
8:00 PM 5.0 °F -11.6 °F -5.8 °F 61% 29.74 in 15.0 mi NW 12.7 mph 20.7 mph N/A   Mostly Cloudy
9:00 PM 5.0 °F -10.0 °F -7.6 °F 56% 29.76 in 15.0 mi WNW 10.4 mph - N/A   Mostly Cloudy
10:00 PM 5.0 °F -10.0 °F -9.4 °F 52% 29.78 in 15.0 mi West 10.4 mph - N/A   Scattered Clouds
11:00 PM 3.2 °F -10.3 °F -9.4 °F 56% 29.79 in 15.0 mi West 8.1 mph - N/A   Partly Cloudy